Powrót do katalogu

QIANFAN-57

AktywnyŁącznośćPO
NORAD 62787·PAYLOAD·🇨🇳 China

Wystrzelony Jan 23, 2025 z Taiyuan Satellite Launch Center

Loading…

Następne Przeloty (najbliższe 24 godziny)

TLE

ŚwieżeSource: Space-Track

Epoka: Sep 14, 2026, 22:21 UTC

1 62787U 25016C   26257.93194344  .00000040  00000-0  43451-4 0  9998
2 62787  88.9674  74.5402 0002512  84.7825 275.3613 13.51027529 84497

Śledź QIANFAN-57 w czasie rzeczywistym z AllMySat

Download on the App Store